| time (UTC) | temp C | wind direction | speed KPH | gust KPH | rain 1hr cm | rain 24hr cm | rain mn cm | humidity % | barometer mb |
| 20260508163927 | 17 | 225 | 3.2 | 6.4 | 0.00 | 0.00 | 0.00 | 27 | 1007.1 |
| 20260508163425 | 17 | 264 | 14.5 | 16.1 | 0.00 | 0.00 | 0.00 | 27 | 1007.2 |
| 20260508162920 | 17 | 312 | 6.4 | 12.9 | 0.00 | 0.00 | 0.00 | 31 | 1007.1 |
| 20260508162418 | 17 | 97 | 1.6 | 4.8 | 0.00 | 0.00 | 0.00 | 28 | 1007.0 |
| 20260508161915 | 17 | 274 | 3.2 | 4.8 | 0.00 | 0.00 | 0.00 | 30 | 1007.0 |
| 20260508161412 | 16 | 268 | 3.2 | 4.8 | 0.00 | 0.00 | 0.00 | 31 | 1007.0 |
| 20260508160909 | 16 | 212 | 3.2 | 6.4 | 0.00 | 0.00 | 0.00 | 32 | 1007.1 |
| 20260508160408 | 16 | 220 | 3.2 | 11.3 | 0.00 | 0.00 | 0.00 | 29 | 1007.4 |
| 20260508155904 | 16 | 226 | 3.2 | 6.4 | 0.00 | 0.00 | 0.00 | 31 | 1007.5 |
| 20260508155402 | 16 | 277 | 3.2 | 6.4 | 0.00 | 0.00 | 0.00 | 30 | 1007.5 |
| 20260508154858 | 16 | 235 | 6.4 | 9.7 | 0.00 | 0.00 | 0.00 | 32 | 1007.5 |
| 20260508154356 | 16 | 243 | 1.6 | 12.9 | 0.00 | 0.00 | 0.00 | 29 | 1007.4 |
| 20260508153852 | 16 | 252 | 4.8 | 6.4 | 0.00 | 0.00 | 0.00 | 31 | 1007.5 |
| 20260508153349 | 16 | 255 | 1.6 | 1.6 | 0.00 | 0.00 | 0.00 | 29 | 1007.5 |
| 20260508152845 | 15 | 255 | 3.2 | 4.8 | 0.00 | 0.00 | 0.00 | 35 | 1007.8 |
| 20260508152342 | 15 | 243 | 1.6 | 3.2 | 0.00 | 0.00 | 0.00 | 33 | 1007.5 |
| 20260508151838 | 16 | 231 | 3.2 | 6.4 | 0.00 | 0.00 | 0.00 | 36 | 1007.7 |
| 20260508151335 | 15 | 218 | 1.6 | 6.4 | 0.00 | 0.00 | 0.00 | 31 | 1007.9 |
| 20260508150832 | 15 | 225 | 1.6 | 9.7 | 0.00 | 0.00 | 0.00 | 33 | 1007.8 |
| 20260508150329 | 15 | 353 | 1.6 | 4.8 | 0.00 | 0.00 | 0.00 | 36 | 1008.0 |
| 20260508145825 | 15 | 199 | 1.6 | 3.2 | 0.00 | 0.00 | 0.00 | 40 | 1007.9 |
| 20260508145321 | 14 | 217 | 0.0 | 3.2 | 0.00 | 0.00 | 0.00 | 41 | 1007.9 |
| 20260508144818 | 13 | 235 | 3.2 | 4.8 | 0.00 | 0.00 | 0.00 | 41 | 1007.9 |
| 20260508144315 | 13 | 238 | 4.8 | 6.4 | 0.00 | 0.00 | 0.00 | 42 | 1008.0 |
| 20260508143807 | 12 | 214 | 3.2 | 4.8 | 0.00 | 0.00 | 0.00 | 42 | 1008.2 |
| 20260508143304 | 12 | 211 | 3.2 | 6.4 | 0.00 | 0.00 | 0.00 | 48 | 1008.2 |
| 20260508142801 | 12 | 237 | 1.6 | 6.4 | 0.00 | 0.00 | 0.00 | 52 | 1008.3 |
| 20260508142258 | 12 | 243 | 3.2 | 4.8 | 0.00 | 0.00 | 0.00 | 51 | 1008.2 |
| 20260508141754 | 11 | 222 | 4.8 | 4.8 | 0.00 | 0.00 | 0.00 | 54 | 1008.1 |
| 20260508141251 | 11 | 255 | 4.8 | 6.4 | 0.00 | 0.00 | 0.00 | 57 | 1008.6 |
| 20260508140749 | 11 | 260 | 3.2 | 6.4 | 0.00 | 0.00 | 0.00 | 60 | 1008.4 |
| 20260508140245 | 10 | 228 | 4.8 | 9.7 | 0.00 | 0.00 | 0.00 | 57 | 1008.6 |
| 20260508135741 | 10 | 266 | 3.2 | 6.4 | 0.00 | 0.00 | 0.00 | 64 | 1008.4 |
| 20260508135238 | 10 | 214 | 3.2 | 4.8 | 0.00 | 0.00 | 0.00 | 62 | 1008.6 |
| 20260508134733 | 9 | 225 | 4.8 | 9.7 | 0.00 | 0.00 | 0.00 | 63 | 1008.3 |
| 20260508134231 | 8 | 225 | 6.4 | 6.4 | 0.00 | 0.00 | 0.00 | 64 | 1008.5 |
| 20260508133727 | 8 | 225 | 6.4 | 9.7 | 0.00 | 0.00 | 0.00 | 67 | 1008.4 |
| 20260508133225 | 8 | 234 | 4.8 | 6.4 | 0.00 | 0.00 | 0.00 | 64 | 1008.5 |
| 20260508132722 | 8 | 219 | 3.2 | 3.2 | 0.00 | 0.00 | 0.00 | 67 | 1008.5 |
| 20260508132220 | 8 | 229 | 0.0 | 1.6 | 0.00 | 0.00 | 0.00 | 72 | 1008.4 |
| 20260508131715 | 7 | 231 | 0.0 | 1.6 | 0.00 | 0.00 | 0.00 | 70 | 1008.5 |
| 20260508131212 | 7 | 251 | 1.6 | 1.6 | 0.00 | 0.00 | 0.00 | 70 | 1008.3 |
| 20260508130709 | 7 | 243 | 1.6 | 1.6 | 0.00 | 0.00 | 0.00 | 69 | 1008.3 |
| 20260508130206 | 7 | 254 | 1.6 | 1.6 | 0.00 | 0.00 | 0.00 | 72 | 1008.4 |
| 20260508125701 | 7 | 314 | 0.0 | 1.6 | 0.00 | 0.00 | 0.00 | 73 | 1008.6 |
| 20260508125158 | 7 | 6 | 0.0 | 1.6 | 0.00 | 0.00 | 0.00 | 73 | 1008.6 |
| 20260508124656 | 7 | 31 | 0.0 | 0.0 | 0.00 | 0.00 | 0.00 | 73 | 1008.5 |
| 20260508124153 | 7 | 339 | 3.2 | 3.2 | 0.00 | 0.00 | 0.00 | 74 | 1008.6 |
| 20260508123651 | 7 | 242 | 1.6 | 3.2 | 0.00 | 0.00 | 0.00 | 72 | 1008.4 |
| 20260508123149 | 7 | 267 | 1.6 | 1.6 | 0.00 | 0.00 | 0.00 | 71 | 1008.4 |
| 20260508122644 | 6 | 250 | 1.6 | 3.2 | 0.00 | 0.00 | 0.00 | 71 | 1008.6 |
| 20260508122141 | 6 | 215 | 0.0 | 0.0 | 0.00 | 0.00 | 0.00 | 74 | 1008.4 |
| 20260508121640 | 6 | 228 | 0.0 | 1.6 | 0.00 | 0.00 | 0.00 | 71 | 1008.5 |
| 20260508121138 | 6 | 283 | 1.6 | 1.6 | 0.00 | 0.00 | 0.00 | 72 | 1008.7 |
| 20260508120635 | 6 | 247 | 1.6 | 3.2 | 0.00 | 0.00 | 0.00 | 76 | 1008.6 |
| 20260508120133 | 6 | 278 | 1.6 | 3.2 | 0.00 | 0.00 | 0.00 | 79 | 1008.3 |
| 20260508115631 | 5 | 299 | 1.6 | 4.8 | 0.00 | 0.00 | 0.00 | 82 | 1008.5 |
| 20260508115127 | 5 | 227 | 3.2 | 3.2 | 0.00 | 0.00 | 0.00 | 82 | 1008.2 |
| 20260508114624 | 5 | 218 | 0.0 | 0.0 | 0.00 | 0.00 | 0.00 | 83 | 1008.5 |
| 20260508114120 | 5 | 218 | 0.0 | 0.0 | 0.00 | 0.00 | 0.00 | 84 | 1008.1 |
| 20260508113617 | 5 | 218 | 0.0 | 3.2 | 0.00 | 0.00 | 0.00 | 84 | 1008.2 |
| 20260508113116 | 3 | 183 | 1.6 | 1.6 | 0.00 | 0.00 | 0.00 | 89 | 1008.2 |
| 20260508112611 | 3 | 126 | 0.0 | 1.6 | 0.00 | 0.00 | 0.00 | 89 | 1008.0 |
| 20260508112109 | 4 | 229 | 0.0 | 0.0 | 0.00 | 0.00 | 0.00 | 89 | 1008.3 |
| 20260508111605 | 3 | 229 | 0.0 | 1.6 | 0.00 | 0.00 | 0.00 | 90 | 1008.4 |
| 20260508111102 | 3 | 170 | 0.0 | 1.6 | 0.00 | 0.00 | 0.00 | 93 | 1008.3 |
| 20260508110601 | 2 | 164 | 0.0 | 0.0 | 0.00 | 0.00 | 0.00 | 92 | 1008.4 |
| 20260508110056 | 2 | 164 | 1.6 | 3.2 | 0.00 | 0.00 | 0.00 | 89 | 1008.2 |
| 20260508105551 | 2 | 356 | 1.6 | 1.6 | 0.00 | 0.00 | 0.00 | 89 | 1008.3 |
| 20260508105049 | 2 | 101 | 1.6 | 3.2 | 0.00 | 0.00 | 0.00 | 89 | 1008.3 |
| 20260508104546 | 1 | 120 | 0.0 | 0.0 | 0.00 | 0.00 | 0.00 | 90 | 1008.2 |
| 20260508104042 | 1 | 112 | 0.0 | 1.6 | 0.00 | 0.00 | 0.00 | 92 | 1008.2 |
| 20260508103540 | 0 | 114 | 0.0 | 1.6 | 0.00 | 0.00 | 0.00 | 91 | 1008.1 |
| 20260508103037 | 1 | 107 | 0.0 | 0.0 | 0.00 | 0.00 | 0.00 | 90 | 1008.3 |
| 20260508102534 | 1 | 103 | 0.0 | 1.6 | 0.00 | 0.00 | 0.00 | 89 | 1008.2 |
| 20260508102032 | 1 | 127 | 0.0 | 0.0 | 0.00 | 0.00 | 0.00 | 89 | 1008.5 |
| 20260508101529 | 1 | 143 | 0.0 | 0.0 | 0.00 | 0.00 | 0.00 | 89 | 1008.3 |
| 20260508101026 | 1 | 141 | 0.0 | 0.0 | 0.00 | 0.00 | 0.00 | 89 | 1008.2 |
| 20260508100525 | 1 | 141 | 0.0 | 0.0 | 0.00 | 0.00 | 0.00 | 89 | 1008.3 |
| 20260508100021 | 1 | 141 | 0.0 | 0.0 | 0.00 | 0.00 | 0.00 | 90 | 1008.3 |
| 20260508095518 | 1 | 157 | 0.0 | 0.0 | 0.00 | 0.00 | 0.00 | 91 | 1008.5 |
| 20260508095015 | 1 | 156 | 0.0 | 0.0 | 0.00 | 0.00 | 0.00 | 90 | 1008.5 |
| 20260508094512 | 1 | 157 | 0.0 | 0.0 | 0.00 | 0.00 | 0.00 | 90 | 1008.4 |
| 20260508094009 | 1 | 156 | 0.0 | 0.0 | 0.00 | 0.00 | 0.00 | 89 | 1008.6 |
| 20260508093506 | 1 | 132 | 0.0 | 0.0 | 0.00 | 0.00 | 0.00 | 89 | 1008.6 |
| 20260508093004 | 1 | 136 | 0.0 | 0.0 | 0.00 | 0.00 | 0.00 | 88 | 1008.6 |
| 20260508092500 | 2 | 147 | 0.0 | 0.0 | 0.00 | 0.00 | 0.00 | 89 | 1008.3 |
| 20260508092000 | 1 | 157 | 0.0 | 0.0 | 0.00 | 0.00 | 0.00 | 89 | 1008.7 |
| 20260508091455 | 1 | 157 | 0.0 | 0.0 | 0.00 | 0.00 | 0.00 | 89 | 1008.6 |
| 20260508090948 | 1 | 149 | 0.0 | 0.0 | 0.00 | 0.00 | 0.00 | 87 | 1008.7 |
| 20260508090446 | 1 | 126 | 0.0 | 0.0 | 0.00 | 0.00 | 0.00 | 87 | 1008.6 |
| 20260508085941 | 1 | 141 | 0.0 | 0.0 | 0.00 | 0.00 | 0.00 | 88 | 1008.6 |
| 20260508085438 | 1 | 123 | 0.0 | 1.6 | 0.00 | 0.00 | 0.00 | 87 | 1008.7 |
| 20260508084935 | 1 | 127 | 0.0 | 0.0 | 0.00 | 0.00 | 0.00 | 88 | 1008.6 |
| 20260508084432 | 1 | 123 | 0.0 | 0.0 | 0.00 | 0.00 | 0.00 | 88 | 1008.6 |
| 20260508083930 | 1 | 108 | 0.0 | 1.6 | 0.00 | 0.00 | 0.00 | 88 | 1008.7 |
| 20260508083426 | 1 | 91 | 0.0 | 1.6 | 0.00 | 0.00 | 0.00 | 87 | 1008.8 |
| 20260508082921 | 2 | 88 | 1.6 | 1.6 | 0.00 | 0.00 | 0.00 | 87 | 1008.8 |
| 20260508082418 | 2 | 142 | 0.0 | 0.0 | 0.00 | 0.00 | 0.00 | 88 | 1008.8 |
| 20260508081916 | 2 | 165 | 0.0 | 0.0 | 0.00 | 0.00 | 0.00 | 88 | 1008.7 |
| 20260508081413 | 2 | 165 | 0.0 | 0.0 | 0.00 | 0.00 | 0.00 | 87 | 1009.0 |
| 20260508080909 | 2 | 165 | 0.0 | 0.0 | 0.00 | 0.00 | 0.00 | 84 | 1009.0 |
| 20260508080408 | 2 | 165 | 0.0 | 0.0 | 0.00 | 0.00 | 0.00 | 89 | 1009.0 |
| 20260508075903 | 2 | 165 | 0.0 | 0.0 | 0.00 | 0.00 | 0.00 | 89 | 1008.9 |
| 20260508075401 | 2 | 165 | 0.0 | 0.0 | 0.00 | 0.00 | 0.00 | 88 | 1008.8 |
| 20260508074859 | 2 | 134 | 0.0 | 0.0 | 0.00 | 0.00 | 0.00 | 87 | 1008.9 |
| 20260508074355 | 2 | 129 | 0.0 | 0.0 | 0.00 | 0.00 | 0.00 | 87 | 1008.8 |
| 20260508073852 | 2 | 112 | 0.0 | 0.0 | 0.00 | 0.00 | 0.00 | 89 | 1008.9 |
| 20260508073350 | 3 | 155 | 0.0 | 0.0 | 0.00 | 0.00 | 0.00 | 90 | 1008.9 |
| 20260508072846 | 3 | 163 | 0.0 | 0.0 | 0.00 | 0.00 | 0.00 | 91 | 1009.1 |
| 20260508072343 | 3 | 174 | 0.0 | 0.0 | 0.00 | 0.00 | 0.00 | 90 | 1009.0 |
| 20260508071840 | 3 | 174 | 0.0 | 0.0 | 0.00 | 0.00 | 0.00 | 90 | 1009.2 |
| 20260508071339 | 3 | 174 | 0.0 | 0.0 | 0.00 | 0.00 | 0.00 | 88 | 1009.1 |
| 20260508070837 | 2 | 168 | 0.0 | 0.0 | 0.00 | 0.00 | 0.00 | 86 | 1009.0 |
| 20260508070334 | 2 | 168 | 0.0 | 0.0 | 0.00 | 0.00 | 0.00 | 82 | 1009.2 |
| 20260508065831 | 2 | 168 | 0.0 | 0.0 | 0.00 | 0.00 | 0.00 | 80 | 1009.3 |
| 20260508065329 | 2 | 168 | 0.0 | 0.0 | 0.00 | 0.00 | 0.00 | 77 | 1009.0 |
| 20260508064827 | 2 | 168 | 0.0 | 0.0 | 0.00 | 0.00 | 0.00 | 77 | 1009.3 |
| 20260508064324 | 2 | 168 | 0.0 | 0.0 | 0.00 | 0.00 | 0.00 | 76 | 1009.2 |
| 20260508063822 | 2 | 168 | 0.0 | 0.0 | 0.00 | 0.00 | 0.00 | 75 | 1009.2 |
| 20260508063320 | 3 | 168 | 0.0 | 0.0 | 0.00 | 0.00 | 0.00 | 73 | 1009.2 |
| 20260508062817 | 3 | 166 | 0.0 | 0.0 | 0.00 | 0.00 | 0.00 | 71 | 1009.3 |
| 20260508062314 | 3 | 143 | 0.0 | 0.0 | 0.00 | 0.00 | 0.00 | 71 | 1009.3 |
| 20260508061811 | 3 | 165 | 0.0 | 0.0 | 0.00 | 0.00 | 0.00 | 73 | 1009.3 |
| 20260508061309 | 3 | 186 | 0.0 | 0.0 | 0.00 | 0.00 | 0.00 | 72 | 1009.2 |
| 20260508060804 | 3 | 186 | 0.0 | 0.0 | 0.00 | 0.00 | 0.00 | 71 | 1009.4 |
| 20260508060302 | 3 | 183 | 0.0 | 0.0 | 0.00 | 0.00 | 0.00 | 71 | 1009.3 |
| 20260508055757 | 4 | 160 | 0.0 | 0.0 | 0.00 | 0.00 | 0.00 | 71 | 1009.4 |
| 20260508055254 | 4 | 133 | 0.0 | 0.0 | 0.00 | 0.00 | 0.00 | 70 | 1009.3 |
| 20260508054750 | 5 | 129 | 0.0 | 0.0 | 0.00 | 0.00 | 0.00 | 68 | 1009.4 |
| 20260508054249 | 4 | 158 | 0.0 | 0.0 | 0.00 | 0.00 | 0.00 | 70 | 1009.7 |
| 20260508053745 | 5 | 158 | 0.0 | 0.0 | 0.00 | 0.00 | 0.00 | 69 | 1009.6 |
| 20260508053243 | 5 | 158 | 0.0 | 0.0 | 0.00 | 0.00 | 0.00 | 69 | 1009.7 |
| 20260508052739 | 5 | 111 | 0.0 | 0.0 | 0.00 | 0.00 | 0.00 | 67 | 1009.9 |
| 20260508052237 | 5 | 161 | 1.6 | 1.6 | 0.00 | 0.00 | 0.00 | 68 | 1009.5 |
| 20260508051733 | 5 | 93 | 1.6 | 3.2 | 0.00 | 0.00 | 0.00 | 71 | 1009.6 |
| 20260508051228 | 5 | 188 | 0.0 | 3.2 | 0.00 | 0.00 | 0.00 | 75 | 1009.6 |
| 20260508050725 | 5 | 227 | 0.0 | 0.0 | 0.00 | 0.00 | 0.00 | 86 | 1009.5 |
| 20260508050222 | 5 | 227 | 0.0 | 0.0 | 0.00 | 0.00 | 0.00 | 83 | 1009.4 |
| 20260508045718 | 5 | 227 | 0.0 | 0.0 | 0.00 | 0.00 | 0.00 | 83 | 1009.6 |
| 20260508045216 | 5 | 227 | 0.0 | 0.0 | 0.00 | 0.00 | 0.00 | 82 | 1009.6 |
| 20260508044714 | 5 | 227 | 0.0 | 0.0 | 0.00 | 0.00 | 0.00 | 81 | 1009.5 |
| 20260508044210 | 5 | 227 | 0.0 | 0.0 | 0.00 | 0.00 | 0.00 | 82 | 1009.5 |
| 20260508043706 | 5 | 228 | 0.0 | 0.0 | 0.00 | 0.00 | 0.00 | 82 | 1009.6 |
| 20260508043204 | 5 | 228 | 0.0 | 0.0 | 0.00 | 0.00 | 0.00 | 79 | 1009.7 |
| 20260508042700 | 5 | 228 | 0.0 | 0.0 | 0.00 | 0.00 | 0.00 | 78 | 1009.6 |
| 20260508042158 | 5 | 228 | 0.0 | 0.0 | 0.00 | 0.00 | 0.00 | 79 | 1009.9 |
| 20260508041654 | 6 | 228 | 0.0 | 0.0 | 0.00 | 0.00 | 0.00 | 79 | 1009.7 |
| 20260508041151 | 6 | 228 | 0.0 | 1.6 | 0.00 | 0.00 | 0.00 | 78 | 1009.7 |
| 20260508040648 | 6 | 228 | 0.0 | 1.6 | 0.00 | 0.00 | 0.00 | 78 | 1009.9 |
| 20260508040145 | 6 | 228 | 0.0 | 0.0 | 0.00 | 0.00 | 0.00 | 79 | 1009.7 |
| 20260508035642 | 6 | 228 | 0.0 | 0.0 | 0.00 | 0.00 | 0.00 | 77 | 1010.0 |
| 20260508035140 | 6 | 228 | 0.0 | 1.6 | 0.00 | 0.00 | 0.00 | 75 | 1009.7 |
| 20260508034636 | 6 | 228 | 1.6 | 1.6 | 0.00 | 0.00 | 0.00 | 76 | 1010.0 |
| 20260508034133 | 6 | 229 | 1.6 | 1.6 | 0.00 | 0.00 | 0.00 | 77 | 1009.9 |
| 20260508033630 | 6 | 223 | 0.0 | 1.6 | 0.00 | 0.00 | 0.00 | 77 | 1010.0 |
| 20260508033129 | 6 | 228 | 1.6 | 1.6 | 0.00 | 0.00 | 0.00 | 75 | 1009.9 |
| 20260508032625 | 6 | 229 | 0.0 | 1.6 | 0.00 | 0.00 | 0.00 | 72 | 1010.0 |
| 20260508032122 | 6 | 215 | 1.6 | 1.6 | 0.00 | 0.00 | 0.00 | 69 | 1009.9 |
| 20260508031619 | 6 | 215 | 1.6 | 1.6 | 0.00 | 0.00 | 0.00 | 65 | 1010.0 |
| 20260508031115 | 6 | 215 | 0.0 | 1.6 | 0.00 | 0.00 | 0.00 | 66 | 1010.1 |
| 20260508030612 | 6 | 215 | 0.0 | 0.0 | 0.00 | 0.00 | 0.00 | 63 | 1010.2 |
| 20260508030110 | 7 | 215 | 0.0 | 1.6 | 0.00 | 0.00 | 0.00 | 62 | 1010.0 |
| 20260508025606 | 7 | 215 | 0.0 | 0.0 | 0.00 | 0.00 | 0.00 | 63 | 1009.9 |
| 20260508025103 | 7 | 215 | 0.0 | 1.6 | 0.00 | 0.00 | 0.00 | 64 | 1009.9 |
| 20260508024559 | 6 | 228 | 1.6 | 1.6 | 0.00 | 0.00 | 0.00 | 57 | 1010.1 |
| 20260508024056 | 6 | 227 | 0.0 | 0.0 | 0.00 | 0.00 | 0.00 | 55 | 1010.1 |
| 20260508023552 | 6 | 227 | 0.0 | 0.0 | 0.00 | 0.00 | 0.00 | 57 | 1009.9 |
| 20260508023050 | 6 | 228 | 0.0 | 0.0 | 0.00 | 0.00 | 0.00 | 55 | 1010.0 |
| 20260508022546 | 7 | 227 | 0.0 | 0.0 | 0.00 | 0.00 | 0.00 | 53 | 1009.9 |
| 20260508022043 | 7 | 227 | 0.0 | 0.0 | 0.00 | 0.00 | 0.00 | 50 | 1009.7 |
| 20260508021539 | 7 | 227 | 0.0 | 0.0 | 0.00 | 0.00 | 0.00 | 48 | 1009.7 |
| 20260508021034 | 7 | 227 | 0.0 | 0.0 | 0.00 | 0.00 | 0.00 | 47 | 1009.7 |
| 20260508020532 | 7 | 227 | 0.0 | 0.0 | 0.00 | 0.00 | 0.00 | 46 | 1009.6 |
| 20260508020030 | 8 | 228 | 0.0 | 0.0 | 0.00 | 0.00 | 0.00 | 45 | 1009.6 |
| 20260508015527 | 8 | 228 | 0.0 | 0.0 | 0.00 | 0.00 | 0.00 | 43 | 1009.5 |
| 20260508015024 | 9 | 233 | 0.0 | 0.0 | 0.00 | 0.00 | 0.00 | 41 | 1009.6 |
| 20260508014520 | 10 | 234 | 0.0 | 0.0 | 0.00 | 0.00 | 0.00 | 40 | 1009.5 |
| 20260508014017 | 11 | 234 | 0.0 | 0.0 | 0.00 | 0.00 | 0.00 | 38 | 1009.4 |
| 20260508013513 | 11 | 238 | 0.0 | 1.6 | 0.00 | 0.00 | 0.00 | 36 | 1009.6 |
| 20260508013010 | 12 | 243 | 1.6 | 1.6 | 0.00 | 0.00 | 0.00 | 34 | 1009.6 |
| 20260508012507 | 12 | 248 | 3.2 | 3.2 | 0.00 | 0.00 | 0.00 | 34 | 1009.4 |
| 20260508012005 | 12 | 249 | 3.2 | 4.8 | 0.00 | 0.00 | 0.00 | 32 | 1009.6 |
| 20260508011503 | 12 | 257 | 1.6 | 3.2 | 0.00 | 0.00 | 0.00 | 32 | 1009.7 |
| 20260508011000 | 12 | 265 | 1.6 | 6.4 | 0.00 | 0.00 | 0.00 | 33 | 1009.4 |
| 20260508010457 | 13 | 267 | 3.2 | 4.8 | 0.00 | 0.00 | 0.00 | 32 | 1009.9 |
| 20260508005954 | 13 | 307 | 3.2 | 3.2 | 0.00 | 0.00 | 0.00 | 32 | 1009.5 |
| 20260508005450 | 13 | 280 | 6.4 | 11.3 | 0.00 | 0.00 | 0.00 | 31 | 1009.5 |
| 20260508004947 | 13 | 247 | 3.2 | 6.4 | 0.00 | 0.00 | 0.00 | 32 | 1009.5 |
| 20260508004443 | 13 | 316 | 9.7 | 16.1 | 0.00 | 0.00 | 0.00 | 31 | 1009.4 |
| 20260508003940 | 13 | 271 | 3.2 | 12.9 | 0.00 | 0.00 | 0.00 | 32 | 1009.6 |
| 20260508003437 | 13 | 305 | 6.4 | 9.7 | 0.00 | 0.00 | 0.00 | 31 | 1009.4 |
| 20260508002934 | 14 | 335 | 12.9 | 16.1 | 0.00 | 0.00 | 0.00 | 30 | 1009.4 |
| 20260508002431 | 14 | 285 | 4.8 | 9.7 | 0.00 | 0.00 | 0.00 | 31 | 1009.4 |
| 20260508001926 | 14 | 282 | 9.7 | 12.9 | 0.00 | 0.00 | 0.00 | 30 | 1009.5 |
| 20260508001423 | 14 | 282 | 9.7 | 12.9 | 0.00 | 0.00 | 0.00 | 30 | 1009.4 |
| 20260508000920 | 14 | 282 | 9.7 | 12.9 | 0.00 | 0.00 | 0.00 | 30 | 1009.4 |
| 20260508000415 | 14 | 282 | 9.7 | 12.9 | 0.00 | 0.00 | 0.00 | 30 | 1009.6 |
| 20260507235913 | 14 | 282 | 9.7 | 12.9 | 0.00 | 0.00 | 0.00 | 30 | 1009.5 |
| 20260507235410 | 14 | 263 | 4.8 | 6.4 | 0.00 | 0.00 | 0.00 | 30 | 1009.7 |
| 20260507234907 | 14 | 205 | 4.8 | 4.8 | 0.00 | 0.00 | 0.00 | 33 | 1009.7 |
| 20260507234403 | 14 | 205 | 4.8 | 4.8 | 0.00 | 0.00 | 0.00 | 33 | 1009.7 |
| 20260507233900 | 14 | 205 | 4.8 | 4.8 | 0.00 | 0.00 | 0.00 | 33 | 1009.7 |
| 20260507233357 | 14 | 287 | 9.7 | 12.9 | 0.00 | 0.00 | 0.00 | 32 | 1009.6 |
| 20260507232855 | 14 | 266 | 12.9 | 17.7 | 0.00 | 0.00 | 0.00 | 32 | 1009.6 |
| 20260507232351 | 14 | 312 | 1.6 | 6.4 | 0.00 | 0.00 | 0.00 | 33 | 1009.4 |
| 20260507231849 | 14 | 331 | 4.8 | 4.8 | 0.00 | 0.00 | 0.00 | 33 | 1009.9 |
| 20260507231345 | 13 | 299 | 8.0 | 14.5 | 0.00 | 0.00 | 0.00 | 32 | 1009.7 |
| 20260507230842 | 13 | 329 | 1.6 | 11.3 | 0.00 | 0.00 | 0.00 | 35 | 1009.9 |
| 20260507230339 | 15 | 309 | 9.7 | 11.3 | 0.00 | 0.00 | 0.00 | 30 | 1009.9 |
| 20260507225839 | 13 | 265 | 11.3 | 22.5 | 0.00 | 0.00 | 0.00 | 31 | 1009.9 |
| 20260507225335 | 14 | 216 | 12.9 | 24.1 | 0.00 | 0.00 | 0.00 | 32 | 1010.0 |
| 20260507224831 | 14 | 344 | 9.7 | 16.1 | 0.00 | 0.00 | 0.00 | 32 | 1009.9 |
| 20260507224328 | 13 | 299 | 3.2 | 6.4 | 0.00 | 0.00 | 0.00 | 35 | 1009.9 |
| 20260507223824 | 12 | 6 | 8.0 | 11.3 | 0.00 | 0.00 | 0.00 | 34 | 1010.1 |
| 20260507223320 | 13 | 351 | 6.4 | 9.7 | 0.00 | 0.00 | 0.00 | 34 | 1010.1 |
| 20260507222818 | 13 | 310 | 4.8 | 12.9 | 0.00 | 0.00 | 0.00 | 35 | 1010.0 |
| 20260507222314 | 13 | 289 | 4.8 | 11.3 | 0.00 | 0.00 | 0.00 | 35 | 1010.1 |
| 20260507221811 | 13 | 253 | 8.0 | 11.3 | 0.00 | 0.00 | 0.00 | 33 | 1010.1 |
| 20260507221308 | 13 | 271 | 4.8 | 6.4 | 0.00 | 0.00 | 0.00 | 34 | 1010.2 |
| 20260507220804 | 13 | 286 | 9.7 | 17.7 | 0.00 | 0.00 | 0.00 | 33 | 1010.3 |
| 20260507220303 | 13 | 298 | 6.4 | 9.7 | 0.00 | 0.00 | 0.00 | 33 | 1010.4 |
| 20260507215758 | 14 | 333 | 6.4 | 14.5 | 0.00 | 0.00 | 0.00 | 33 | 1010.3 |
| 20260507215256 | 15 | 257 | 8.0 | 12.9 | 0.00 | 0.00 | 0.00 | 31 | 1010.4 |
| 20260507214753 | 14 | 330 | 8.0 | 14.5 | 0.00 | 0.00 | 0.00 | 32 | 1010.4 |
| 20260507214250 | 13 | 334 | 6.4 | 9.7 | 0.00 | 0.00 | 0.00 | 32 | 1010.6 |
| 20260507213745 | 13 | 354 | 8.0 | 9.7 | 0.00 | 0.00 | 0.00 | 32 | 1010.5 |
| 20260507213242 | 13 | 308 | 6.4 | 9.7 | 0.00 | 0.00 | 0.00 | 36 | 1010.5 |
| 20260507212739 | 13 | 308 | 6.4 | 9.7 | 0.00 | 0.00 | 0.00 | 36 | 1010.5 |
| 20260507212235 | 13 | 308 | 6.4 | 9.7 | 0.00 | 0.00 | 0.00 | 36 | 1010.7 |
| 20260507211732 | 13 | 308 | 6.4 | 9.7 | 0.00 | 0.00 | 0.00 | 36 | 1010.8 |
| 20260507211228 | 13 | 308 | 6.4 | 9.7 | 0.00 | 0.00 | 0.00 | 36 | 1010.6 |
| 20260507210725 | 13 | 1 | 8.0 | 9.7 | 0.00 | 0.00 | 0.00 | 34 | 1010.8 |
| 20260507210222 | 13 | 330 | 6.4 | 16.1 | 0.00 | 0.00 | 0.00 | 34 | 1010.8 |
| 20260507205718 | 13 | 254 | 8.0 | 14.5 | 0.00 | 0.00 | 0.00 | 32 | 1010.9 |
| 20260507205215 | 13 | 238 | 6.4 | 16.1 | 0.00 | 0.00 | 0.00 | 34 | 1010.6 |
| 20260507204711 | 13 | 283 | 9.7 | 11.3 | 0.00 | 0.00 | 0.00 | 33 | 1010.7 |
| 20260507204209 | 13 | 352 | 11.3 | 14.5 | 0.00 | 0.00 | 0.00 | 32 | 1010.8 |
| 20260507203707 | 14 | 290 | 6.4 | 9.7 | 0.00 | 0.00 | 0.00 | 36 | 1010.9 |
| 20260507203204 | 14 | 290 | 6.4 | 9.7 | 0.00 | 0.00 | 0.00 | 36 | 1010.9 |
| 20260507202700 | 13 | 277 | 11.3 | 14.5 | 0.00 | 0.00 | 0.00 | 32 | 1010.8 |
| 20260507202156 | 13 | 223 | 11.3 | 14.5 | 0.00 | 0.00 | 0.00 | 31 | 1011.0 |
| 20260507201651 | 13 | 299 | 14.5 | 20.9 | 0.00 | 0.00 | 0.00 | 31 | 1011.2 |
| 20260507201148 | 12 | 8 | 6.4 | 16.1 | 0.00 | 0.00 | 0.00 | 33 | 1011.1 |
| 20260507200645 | 13 | 358 | 6.4 | 16.1 | 0.00 | 0.00 | 0.00 | 33 | 1011.0 |
| 20260507200141 | 13 | 356 | 8.0 | 11.3 | 0.00 | 0.00 | 0.00 | 37 | 1011.0 |
| 20260507195637 | 12 | 265 | 9.7 | 16.1 | 0.00 | 0.00 | 0.00 | 37 | 1011.3 |
| 20260507195135 | 12 | 265 | 9.7 | 16.1 | 0.00 | 0.00 | 0.00 | 37 | 1011.4 |
| 20260507194631 | 12 | 265 | 9.7 | 16.1 | 0.00 | 0.00 | 0.00 | 37 | 1011.4 |
| 20260507194126 | 12 | 265 | 9.7 | 16.1 | 0.00 | 0.00 | 0.00 | 37 | 1011.3 |
| 20260507193624 | 12 | 265 | 9.7 | 16.1 | 0.00 | 0.00 | 0.00 | 37 | 1011.4 |
| 20260507193121 | 12 | 265 | 9.7 | 16.1 | 0.00 | 0.00 | 0.00 | 37 | 1011.5 |
| 20260507192617 | 12 | 265 | 9.7 | 16.1 | 0.00 | 0.00 | 0.00 | 37 | 1011.5 |
| 20260507192115 | 12 | 265 | 9.7 | 16.1 | 0.00 | 0.00 | 0.00 | 37 | 1011.4 |
| 20260507191610 | 12 | 312 | 11.3 | 14.5 | 0.00 | 0.00 | 0.00 | 36 | 1011.4 |
| 20260507191107 | 12 | 312 | 11.3 | 14.5 | 0.00 | 0.00 | 0.00 | 36 | 1011.4 |
| 20260507190604 | 12 | 277 | 9.7 | 14.5 | 0.00 | 0.00 | 0.00 | 36 | 1011.7 |
| 20260507185601 | 12 | 254 | 6.4 | 9.7 | 0.00 | 0.00 | 0.00 | 37 | 1011.6 |
| 20260507185057 | 12 | 254 | 6.4 | 9.7 | 0.00 | 0.00 | 0.00 | 37 | 1011.6 |
| 20260507184555 | 12 | 254 | 6.4 | 9.7 | 0.00 | 0.00 | 0.00 | 37 | 1011.8 |
| 20260507184053 | 12 | 254 | 6.4 | 9.7 | 0.00 | 0.00 | 0.00 | 37 | 1012.0 |
| 20260507183549 | 12 | 254 | 6.4 | 9.7 | 0.00 | 0.00 | 0.00 | 37 | 1011.8 |
| 20260507183046 | 12 | 254 | 6.4 | 9.7 | 0.00 | 0.00 | 0.00 | 37 | 1011.8 |
| 20260507182542 | 12 | 254 | 6.4 | 9.7 | 0.00 | 0.00 | 0.00 | 37 | 1011.9 |
| 20260507182038 | 11 | 329 | 6.4 | 6.4 | 0.00 | 0.00 | 0.00 | 38 | 1011.9 |
| 20260507181536 | 11 | 329 | 6.4 | 6.4 | 0.00 | 0.00 | 0.00 | 38 | 1011.9 |
| 20260507181031 | 11 | 329 | 6.4 | 6.4 | 0.00 | 0.00 | 0.00 | 38 | 1012.0 |
| 20260507180528 | 11 | 329 | 6.4 | 6.4 | 0.00 | 0.00 | 0.00 | 38 | 1012.1 |
| 20260507180025 | 11 | 329 | 6.4 | 6.4 | 0.00 | 0.00 | 0.00 | 38 | 1012.1 |
| 20260507175521 | 11 | 329 | 6.4 | 6.4 | 0.00 | 0.00 | 0.00 | 38 | 1012.5 |
| 20260507175019 | 11 | 329 | 6.4 | 6.4 | 0.00 | 0.00 | 0.00 | 38 | 1012.5 |
| 20260507174516 | 11 | 329 | 6.4 | 6.4 | 0.00 | 0.00 | 0.00 | 38 | 1012.1 |
| 20260507174014 | 11 | 294 | 8.0 | 11.3 | 0.00 | 0.00 | 0.00 | 39 | 1012.2 |
| 20260507173510 | 11 | 294 | 8.0 | 11.3 | 0.00 | 0.00 | 0.00 | 39 | 1012.5 |
| 20260507173008 | 11 | 294 | 8.0 | 11.3 | 0.00 | 0.00 | 0.00 | 39 | 1012.5 |
| 20260507172503 | 11 | 294 | 8.0 | 11.3 | 0.00 | 0.00 | 0.00 | 39 | 1012.6 |
| 20260507172000 | 11 | 342 | 4.8 | 6.4 | 0.00 | 0.00 | 0.00 | 38 | 1012.6 |
| 20260507171455 | 10 | 282 | 3.2 | 4.8 | 0.00 | 0.00 | 0.00 | 41 | 1012.7 |
| 20260507170953 | 11 | 353 | 4.8 | 9.7 | 0.00 | 0.00 | 0.00 | 37 | 1012.8 |
| 20260507170450 | 11 | 237 | 8.0 | 12.9 | 0.00 | 0.00 | 0.00 | 40 | 1012.8 |
| 20260507165946 | 11 | 270 | 6.4 | 6.4 | 0.00 | 0.00 | 0.00 | 40 | 1013.0 |
| 20260507165442 | 10 | 262 | 12.9 | 20.9 | 0.00 | 0.00 | 0.00 | 38 | 1012.9 |
| 20260507164938 | 10 | 224 | 6.4 | 9.7 | 0.00 | 0.00 | 0.00 | 39 | 1012.8 |
| 20260507164435 | 10 | 215 | 4.8 | 11.3 | 0.00 | 0.00 | 0.00 | 38 | 1012.9 |